Meteo Giornale » Osservazioni meteo Italia » Bari-Palese Macchie

ore: 22:50 - Osservazioni Meteo Bari-Palese Macchie
Lat. 41° 8' N Lon. 16° 47' E Alt. 34 metri s.l.m.

poco_nuvoloso Europe/Rome

30 °C

Poco Nuvoloso

Temp. 24 Ore

23 °C

36 °C

Sud/Sud-Ovest

7.4 Km/h

Dew point 14 °C

Umidità 37 %

Visibilità  10 Km

Il sole sorge alle ore 05:21

Il sole tramonta alle ore 20:31

Data e Ora Cielo e Fenomeni T °C DP °C Um. % Pres. hPa Vis. km Vento km/h
Oggi h: 22:50 poco_nuvoloso Poco Nuvoloso 30 14 37 1006 10 S/SO 7.4
Oggi h: 22:20 poco_nuvoloso Poco Nuvoloso 31 14 35 1006 10 S/SO 11.1
Oggi h: 21:50 poco_nuvoloso Poco Nuvoloso 31 14 35 1006 10 S/SO 11.1
Oggi h: 21:20 poco_nuvoloso Poco Nuvoloso 31 13 33 1006 10 S 9.3
Oggi h: 20:50 poco_nuvoloso Poco Nuvoloso 32 12 29 1006 10 S 9.3
Oggi h: 20:20 poco_nuvoloso Poco Nuvoloso 32 11 27 1006 10 S 7.4
Oggi h: 19:50 poco_nuvoloso Poco Nuvoloso 33 11 26 1007 10 S/SO 11.1
Oggi h: 19:20 sereno Sereno 34 12 26 1007 10 S/SO 13
Oggi h: 18:50 sereno Sereno 35 12 24 1006 10 S/SO 9.3
Oggi h: 18:20 sereno Sereno 35 13 26 1006 10 S 7.4
Oggi h: 17:50 sereno Sereno 36 13 25 1006 10 S 7.4
Oggi h: 17:20 sereno Sereno 35 15 30 1006 10 E 7.4
Oggi h: 16:50 sereno Sereno 34 14 30 1007 10 E 9.3
Oggi h: 15:50 sereno Sereno 36 13 25 1007 10 E 9.3
Oggi h: 15:20 sereno Sereno 35 14 28 1007 10 E/SE 7.4
Oggi h: 14:50 sereno Sereno 34 13 28 1008 10 N 5.5
Oggi h: 14:20 sereno Sereno 34 13 28 1008 10 N 5.5
Oggi h: 13:50 sereno Sereno 33 14 31 1009 10 N 5.5
Oggi h: 13:20 sereno Sereno 32 14 33 1009 10 N 5.5
Oggi h: 12:50 sereno Sereno 31 15 37 1009 10 N 5.5
Oggi h: 12:20 sereno Sereno 32 15 35 1009 10 E 7.4
Oggi h: 11:50 sereno Sereno 33 14 31 1009 10 N/NE 7.4
Oggi h: 11:20 sereno Sereno 33 13 29 1009 10 NE 7.4
Oggi h: 10:50 sereno Sereno 34 13 28 1008 10 N 5.5
Oggi h: 10:20 sereno Sereno 32 15 35 1008 10 N 7.4
Oggi h: 09:50 sereno Sereno 33 14 31 1008 10 N 3.7
Oggi h: 09:20 sereno Sereno 32 13 31 1008 10 N 1.8
Oggi h: 08:50 sereno Sereno 31 13 33 1008 10 N 5.5
Oggi h: 08:20 sereno Sereno 31 13 33 1008 10 N 5.5
Oggi h: 07:50 sereno Sereno 29 15 42 1008 10 N 3.7
Oggi h: 07:20 sereno Sereno 27 16 50 1008 10 N 3.7
Oggi h: 06:50 sereno Sereno 26 15 50 1008 10 N 1.8
Oggi h: 06:20 sereno Sereno 24 15 57 1008 10 N 3.7
Oggi h: 05:50 sereno Sereno 23 15 60 1008 10 N 5.5
Oggi h: 05:20 sereno Sereno 24 15 57 1007 10 N 5.5
Oggi h: 04:50 sereno Sereno 25 15 53 1007 10 SO 7.4
Oggi h: 04:20 sereno Sereno 25 15 53 1007 10 SO 7.4
Oggi h: 03:50 sereno Sereno 24 14 53 1007 10 N 5.5
Oggi h: 03:20 sereno Sereno 24 14 53 1007 10 N 5.5
Oggi h: 02:50 sereno Sereno 25 14 50 1007 10 SO 9.3
Oggi h: 02:20 sereno Sereno 25 14 50 1008 10 N 5.5
Oggi h: 01:50 sereno Sereno 26 14 47 1008 10 S/SO 9.3
Oggi h: 00:50 sereno Sereno 27 15 47 1008 10 O/SO 7.4
Oggi h: 00:20 sereno Sereno 27 16 50 1008 10 O/SO 9.3
Ieri h: 23:50 sereno Sereno 27 17 54 1008 10 O/SO 11.1
Ieri h: 23:20 sereno Sereno 28 17 51 1008 10 O/SO 7.4
Ieri h: 22:50 sereno Sereno 28 17 51 1008 10 O/SO 7.4